Wind_Speed
2 3 3 4 5 6 8 9 10 10 10 10 10 9 8 7 6 4 2 1 3 5 7 9 11 13 14 15 16 16 17 17 17 16 15 15 14 14 14 13 13 12 11
1 1 1 1 2 3 5 6 7 8 8 9 8 8 8 7 6 5 3 2 1 3 5 7 9 11 12 14 15 17 17 17 17 18 17 16 16 15 15 15 14 13 11
2 2 3 2 1 1 1 3 4 5 5 6 6 6 6 6 5 5 4 3 2 2 3 5 7 9 11 13 15 16 16 17 18 18 17 17 16 16 16 15 14 12 11
3 4 5 4 4 3 2 1 1 2 2 3 4 4 4 4 4 4 4 4 3 2 3 4 5 6 8 10 12 14 15 16 17 17 17 17 16 16 15 14 12 11 9
6 6 6 6 6 6 5 5 3 2 1 1 1 1 2 2 3 3 3 3 3 3 3 3 3 4 5 7 9 11 12 13 14 14 14 14 14 14 13 12 10 9 8
8 9 9 9 9 9 9 8 7 6 5 4 3 3 2 2 2 2 2 2 3 3 3 3 3 3 3 4 6 7 8 9 10 10 10 10 10 10 9 8 7 7 5
11 11 11 11 11 11 11 11 11 10 9 8 7 6 6 5 4 3 2 2 2 2 2 2 2 2 1 2 3 4 4 5 6 6 5 5 5 5 4 4 4 3 3
13 12 12 12 13 13 14 14 14 14 13 13 12 11 10 9 8 7 5 4 3 2 2 2 2 2 1 1 1 2 3 3 3 3 3 3 2 2 2 1 2 2 2
14 14 14 14 15 16 17 17 17 17 17 17 16 16 15 13 12 10 9 8 7 5 4 3 2 1 1 0 1 1 2 2 2 3 3 3 3 3 3 2 3 3 3
17 16 17 17 18 18 18 19 20 20 20 20 20 20 19 18 16 14 13 11 10 9 7 6 4 3 2 2 1 2 2 3 3 3 4 4 4 4 4 4 4 4 4
21 20 21 21 20 20 20 21 21 21 22 22 22 23 23 21 20 19 17 15 14 13 11 10 8 6 5 4 4 3 3 3 4 4 4 5 5 5 5 5 5 5 5
27 27 27 27 26 25 24 24 24 24 24 24 24 25 24 24 23 22 21 19 17 16 15 14 12 10 9 8 7 6 5 5 4 4 4 4 5 5 5 5 5 5 5
32 33 33 33 32 32 32 31 30 29 28 27 26 25 25 25 26 25 24 22 21 19 18 17 16 15 13 12 11 9 8 7 6 6 5 5 4 5 5 5 4 4 5
35 36 36 36 36 37 37 37 36 35 33 32 31 30 27 26 26 26 26 24 24 23 22 21 20 19 18 16 15 13 12 11 10 8 7 6 6 5 5 4 4 4 4
35 35 36 36 37 37 38 39 39 39 38 37 35 34 32 30 27 27 27 27 27 26 25 24 22 22 22 21 19 17 16 14 13 12 10 9 8 7 6 5 5 4 4
34 34 35 35 35 35 36 37 38 40 40 40 40 39 37 35 33 30 28 28 28 28 27 26 25 25 26 25 24 22 20 19 17 16 14 13 11 10 9 8 7 6 5
32 32 33 33 33 33 34 34 35 37 39 40 41 42 41 40 39 36 34 32 31 29 27 26 27 26 26 27 27 26 25 23 22 20 18 17 15 14 12 11 10 9 8
29 31 32 32 32 32 33 34 34 35 35 36 38 40 42 43 43 41 40 38 36 34 31 29 29 29 27 29 30 29 28 27 26 24 23 21 20 18 16 14 13 12 11
28 29 29 30 30 31 31 32 32 33 34 34 35 37 38 40 42 43 42 42 40 38 36 34 32 31 30 30 31 32 31 31 30 29 27 26 24 22 20 18 17 16 14
26 26 26 26 27 27 28 29 29 31 32 32 33 35 36 37 39 40 42 43 43 41 39 38 36 33 31 30 31 33 34 34 33 31 31 29 27 25 24 22 21 20 18
22 21 21 21 22 23 24 25 26 27 29 30 32 33 35 36 37 39 40 41 43 43 42 41 39 37 34 32 32 31 34 35 36 35 34 32 30 29 27 26 24 23 22
19 19 18 18 18 18 19 20 22 23 25 26 28 31 33 35 37 38 39 41 42 42 43 43 42 40 38 37 35 33 32 33 36 37 36 35 33 32 31 29 27 26 25
19 18 18 17 17 17 17 17 18 19 20 22 24 26 29 32 34 36 38 40 41 41 42 44 45 44 42 41 39 36 33 32 34 37 38 37 36 35 33 31 30 28 27
19 19 18 18 17 17 16 16 15 15 16 17 19 21 23 26 29 32 35 38 40 41 42 43 44 44 44 43 41 40 37 35 34 35 37 38 38 37 36 34 32 31 29
20 20 19 19 18 18 17 16 15 14 14 14 15 16 18 21 24 27 30 34 37 40 41 43 44 44 45 44 43 42 40 39 37 36 35 37 39 38 37 37 35 34 32
21 21 21 20 19 19 18 16 15 15 14 13 13 13 15 16 19 22 25 29 33 36 39 41 43 44 44 45 45 44 43 42 39 38 37 37 38 39 39 39 37 35 33
Wind_Direction
57 71 76 74 77 81 82 80 78 76 74 73 73 73 73 74 76 79 93 164 222 234 242 243 243 245 247 248 250 249 250 251 252 259 266 271 276 282 289 296 301 307 312
5 2 3 63 79 86 87 83 79 77 75 73 71 70 69 68 66 65 63 59 267 254 251 249 248 249 250 253 255 253 254 253 253 258 263 268 272 278 285 289 293 298 304
288 296 287 275 253 138 106 90 82 76 73 72 69 67 65 62 59 55 50 41 15 316 280 264 256 252 253 255 256 257 257 254 255 257 262 266 270 276 282 283 286 290 294
269 274 272 267 259 251 237 216 129 88 72 64 61 58 57 55 51 46 42 36 21 353 317 289 269 259 257 259 259 258 257 254 254 256 260 263 269 274 277 278 280 282 284
265 264 262 260 257 254 250 247 243 242 250 313 358 12 19 26 34 35 31 28 19 5 345 317 291 274 265 264 264 262 257 254 252 256 260 264 268 271 273 273 273 274 275
266 262 259 257 256 255 253 251 251 252 254 260 270 281 291 302 322 349 2 6 4 2 0 348 329 308 281 269 267 264 257 250 248 254 261 263 264 266 268 268 266 268 264
267 263 261 259 258 257 256 254 253 253 255 258 262 267 267 267 271 277 288 307 326 339 355 0 359 356 328 281 264 254 244 240 241 245 247 249 253 255 257 251 249 248 243
277 270 263 261 262 261 258 256 253 252 253 255 257 260 261 259 258 258 259 261 268 282 300 327 345 354 2 315 255 229 215 216 224 216 209 208 206 196 196 199 198 190 187
288 284 277 269 264 263 261 257 256 254 252 251 252 254 255 256 255 254 252 251 251 252 256 264 278 300 314 290 221 200 189 188 187 178 169 161 152 144 138 133 133 139 140
286 285 284 280 272 269 267 264 261 258 256 255 254 254 252 251 253 254 253 250 248 247 246 246 246 246 243 232 210 187 170 163 161 162 155 147 139 131 122 118 120 123 124
273 274 274 275 275 273 270 268 267 264 260 258 259 258 257 253 250 250 252 252 250 247 246 244 242 238 235 230 224 211 195 173 163 159 156 150 142 132 123 121 119 119 122
270 269 268 269 269 268 268 268 267 267 266 262 262 260 260 255 251 249 249 250 251 248 246 245 243 239 235 231 229 226 217 204 187 175 168 162 156 145 135 132 128 128 125
271 269 267 267 266 266 266 266 265 264 263 262 264 263 263 256 250 248 249 249 250 248 247 246 244 241 237 233 232 232 229 221 213 200 190 185 177 165 156 152 143 139 136
274 272 271 269 267 266 265 265 263 262 262 260 260 261 262 259 254 250 249 248 248 248 249 248 245 240 237 234 233 233 233 230 223 216 209 204 200 191 179 174 168 157 149
279 277 274 271 269 266 264 263 262 261 260 259 259 258 258 257 258 255 252 251 249 248 249 248 246 243 239 235 233 233 234 233 229 224 221 218 216 213 204 196 189 183 176
283 281 279 277 273 270 267 264 261 260 258 257 257 256 255 255 255 255 256 255 253 250 249 250 248 244 240 236 234 233 234 234 232 230 227 225 225 224 221 217 213 208 203
287 285 283 281 278 275 272 268 265 261 259 257 255 255 254 254 254 253 253 254 254 252 251 250 247 246 243 238 235 234 235 235 235 233 232 230 229 228 229 230 229 227 224
290 288 286 284 282 279 276 272 268 264 261 258 255 253 252 252 253 252 252 252 253 251 252 252 250 247 246 241 236 236 236 237 237 236 236 234 232 232 233 235 236 236 236
297 293 290 287 285 282 279 276 271 267 263 259 256 253 252 251 251 250 250 250 250 251 252 252 250 249 249 244 238 237 237 238 239 239 239 237 235 234 235 237 239 241 241
306 301 296 293 288 285 281 278 274 269 265 261 257 254 252 250 249 249 248 248 248 248 248 248 248 249 249 246 242 240 239 239 238 238 239 239 238 237 238 239 240 242 243
316 312 307 303 297 291 285 281 277 272 267 263 259 255 252 250 249 248 247 247 247 246 245 245 245 246 248 247 245 244 240 238 236 237 238 239 239 239 240 241 241 242 244
331 328 323 318 313 306 298 291 284 277 272 268 264 259 254 251 248 246 246 246 246 244 243 243 243 243 243 246 246 245 242 239 236 236 238 239 239 239 240 241 242 243 244
347 345 340 334 329 324 315 307 298 287 279 273 268 263 257 253 250 248 246 245 245 244 243 242 243 242 241 242 243 244 244 240 239 237 237 239 240 240 240 240 242 243 244
359 357 353 349 344 339 333 326 316 304 294 284 276 270 262 256 251 249 246 245 244 244 243 243 243 242 241 241 242 242 242 241 239 238 238 238 238 239 240 241 242 243 244
6 3 359 356 353 349 346 341 335 324 312 300 292 281 270 262 255 251 248 246 244 243 242 241 241 241 240 240 240 239 239 239 238 240 239 236 236 236 238 240 240 241 243
9 7 5 2 0 358 355 353 348 342 332 320 309 296 283 272 263 257 252 249 247 245 243 242 241 240 240 239 238 238 238 237 238 238 237 237 236 234 235 237 238 238 240
Height
5908 5907 5907 5906 5906 5905 5904 5903 5902 5902 5901 5901 5900 5900 5900 5900 5899 5899 5899 5899 5900 5900 5901 5902 5903 5904 5905 5906 5907 5907 5909 5910 5911 5911 5912 5912 5912 5913 5912 5912 5912 5911 5911
5908 5907 5907 5906 5906 5905 5904 5903 5903 5902 5901 5901 5901 5901 5901 5900 5900 5899 5899 5899 5899 5899 5899 5900 5901 5902 5903 5903 5904 5905 5906 5907 5908 5909 5909 5910 5910 5911 5910 5910 5910 5910 5910
5907 5907 5906 5906 5905 5905 5904 5903 5903 5902 5902 5901 5901 5901 5901 5900 5900 5900 5899 5899 5899 5898 5898 5899 5899 5900 5901 5901 5902 5903 5904 5905 5905 5906 5907 5908 5908 5908 5908 5908 5909 5909 5909
5906 5906 5905 5905 5904 5904 5903 5903 5902 5902 5901 5901 5901 5901 5900 5900 5900 5900 5899 5899 5899 5898 5898 5898 5898 5898 5899 5899 5900 5900 5901 5902 5903 5904 5905 5906 5906 5906 5906 5907 5907 5907 5907
5904 5904 5904 5903 5903 5903 5902 5902 5902 5901 5901 5901 5900 5900 5900 5900 5900 5899 5899 5899 5899 5898 5898 5897 5897 5897 5897 5897 5898 5898 5899 5900 5901 5902 5903 5903 5904 5904 5904 5904 5905 5905 5906
5903 5902 5902 5901 5901 5901 5901 5901 5901 5900 5900 5900 5899 5899 5899 5899 5899 5899 5899 5899 5898 5898 5897 5897 5897 5896 5896 5896 5896 5897 5897 5898 5899 5900 5901 5901 5902 5902 5902 5903 5903 5904 5904
5901 5900 5899 5899 5899 5899 5898 5898 5898 5899 5899 5899 5898 5898 5898 5898 5898 5898 5898 5898 5898 5898 5897 5897 5896 5896 5896 5896 5896 5896 5896 5897 5898 5899 5899 5900 5901 5901 5901 5902 5902 5903 5904
5898 5897 5897 5896 5896 5896 5896 5896 5896 5896 5896 5896 5897 5897 5897 5897 5897 5897 5897 5897 5897 5897 5897 5897 5896 5896 5896 5896 5895 5896 5896 5897 5897 5898 5899 5899 5900 5900 5901 5901 5902 5902 5903
5896 5895 5894 5894 5893 5893 5892 5892 5892 5893 5893 5893 5894 5894 5894 5895 5895 5895 5895 5896 5896 5896 5896 5896 5896 5896 5896 5896 5896 5896 5896 5897 5897 5898 5899 5899 5900 5900 5901 5901 5902 5902 5903
5893 5892 5891 5890 5890 5889 5889 5889 5889 5889 5889 5889 5890 5890 5891 5891 5892 5893 5893 5894 5894 5895 5895 5895 5895 5896 5896 5896 5896 5896 5897 5897 5898 5898 5899 5899 5900 5901 5901 5902 5902 5903 5903
5890 5889 5888 5886 5886 5885 5885 5884 5884 5884 5884 5885 5885 5886 5886 5887 5888 5889 5890 5891 5891 5892 5893 5893 5894 5894 5895 5895 5896 5896 5897 5897 5898 5899 5899 5900 5900 5901 5901 5902 5903 5903 5904
5885 5884 5882 5882 5881 5880 5880 5880 5880 5879 5879 5880 5880 5881 5881 5882 5883 5885 5886 5887 5888 5889 5890 5891 5892 5892 5893 5894 5895 5895 5896 5897 5898 5899 5899 5900 5900 5901 5902 5902 5903 5904 5904
5878 5877 5876 5875 5874 5874 5874 5874 5874 5874 5874 5875 5875 5875 5876 5877 5878 5879 5881 5882 5884 5885 5886 5887 5889 5890 5891 5892 5893 5894 5895 5896 5897 5898 5899 5900 5901 5901 5902 5903 5903 5904 5905
5871 5869 5868 5867 5867 5867 5867 5867 5867 5867 5868 5868 5868 5869 5870 5871 5872 5873 5875 5877 5878 5880 5881 5882 5884 5886 5887 5889 5890 5891 5893 5894 5896 5897 5898 5899 5900 5901 5902 5903 5903 5904 5905
5862 5860 5859 5859 5858 5858 5858 5858 5858 5859 5860 5860 5861 5862 5863 5865 5866 5867 5869 5870 5872 5874 5876 5877 5879 5881 5883 5885 5886 5888 5890 5892 5893 5895 5896 5898 5899 5900 5901 5902 5903 5904 5905
5853 5851 5850 5849 5848 5848 5848 5848 5849 5849 5850 5851 5853 5854 5855 5857 5859 5861 5862 5864 5866 5867 5869 5871 5873 5875 5878 5880 5882 5884 5886 5888 5890 5892 5894 5896 5897 5898 5900 5901 5902 5903 5904
5845 5843 5841 5840 5839 5839 5839 5839 5839 5839 5840 5842 5843 5845 5847 5849 5851 5853 5855 5857 5859 5861 5863 5865 5867 5869 5871 5874 5876 5878 5881 5883 5885 5888 5890 5892 5894 5896 5897 5899 5900 5902 5903
5838 5836 5833 5832 5830 5830 5829 5829 5829 5830 5831 5832 5833 5835 5837 5839 5842 5844 5847 5849 5851 5853 5856 5858 5860 5863 5865 5867 5870 5873 5875 5878 5880 5883 5886 5888 5891 5893 5894 5896 5898 5899 5901
5831 5828 5826 5824 5822 5821 5820 5820 5819 5820 5821 5822 5823 5825 5827 5829 5832 5835 5838 5840 5843 5845 5848 5851 5853 5855 5857 5859 5862 5866 5869 5872 5875 5878 5881 5883 5886 5888 5890 5893 5894 5896 5898
5825 5822 5819 5817 5815 5813 5812 5811 5810 5811 5811 5812 5814 5815 5817 5819 5822 5824 5827 5830 5833 5836 5840 5843 5845 5847 5850 5852 5855 5859 5862 5865 5868 5871 5874 5878 5881 5883 5886 5888 5890 5892 5894
5820 5816 5813 5811 5808 5806 5805 5803 5802 5802 5802 5803 5804 5805 5807 5810 5812 5815 5817 5820 5823 5826 5830 5833 5836 5839 5842 5845 5848 5850 5854 5857 5861 5864 5868 5871 5874 5877 5880 5883 5885 5888 5890
5817 5813 5809 5806 5804 5801 5799 5797 5795 5795 5794 5794 5795 5796 5797 5800 5802 5805 5807 5810 5813 5816 5820 5823 5826 5830 5834 5837 5839 5842 5845 5850 5853 5857 5860 5863 5867 5870 5874 5877 5880 5882 5884
5815 5811 5807 5804 5800 5797 5794 5792 5790 5789 5788 5787 5787 5788 5788 5790 5792 5794 5797 5800 5803 5806 5810 5813 5817 5821 5824 5827 5831 5834 5838 5842 5845 5849 5852 5856 5859 5863 5867 5870 5873 5876 5879
5814 5810 5806 5802 5799 5795 5791 5789 5786 5784 5782 5781 5781 5780 5780 5781 5783 5785 5787 5790 5793 5796 5800 5803 5806 5810 5814 5818 5822 5826 5830 5833 5837 5841 5844 5848 5851 5855 5859 5863 5866 5870 5872
5814 5810 5806 5802 5798 5794 5790 5786 5783 5781 5779 5777 5776 5775 5774 5775 5775 5777 5779 5781 5784 5787 5790 5793 5796 5800 5804 5808 5812 5816 5820 5824 5828 5832 5835 5839 5843 5847 5851 5855 5859 5863 5866
5815 5811 5806 5801 5797 5793 5789 5785 5782 5779 5776 5774 5772 5770 5769 5769 5769 5770 5771 5773 5775 5777 5780 5783 5786 5790 5794 5798 5802 5806 5810 5815 5819 5823 5827 5831 5834 5839 5843 5847 5851 5855 5858